Wind_Speed
46 43 41 40 39 39 38 37 35 34 33 31 30 30 31 33 33 32 32 32 31 32 32 34 36 39 41 43 43 44 44 44 43 42 39 37 35 34 35 37 37 36 35 35 34 34 33 32 30 28 30 30 29 28 29 30 31 31 32 33 34 35 37 39 38 37 37 36 35 34 33 33 33 32 31 30 28 27 26 25 24 24 24 23 23
42 39 38 38 38 37 36 33 31 30 29 30 30 30 31 31 30 29 28 28 28 30 32 34 37 40 42 43 44 44 43 43 43 42 39 37 36 35 35 36 36 35 34 34 34 34 33 32 30 30 31 31 29 27 28 29 31 32 33 34 35 36 38 39 40 38 36 35 34 34 34 34 34 33 32 32 30 29 27 26 25 25 24 23 22
37 36 35 34 32 31 29 28 27 26 26 28 28 28 28 27 26 25 25 25 27 31 35 37 38 39 40 42 43 42 40 40 40 40 38 36 34 33 34 34 34 33 33 33 34 34 33 32 32 31 32 30 27 26 26 27 28 30 32 34 35 36 38 40 40 38 34 32 33 33 34 35 35 34 33 33 32 31 29 28 27 26 25 24 23
34 32 28 26 24 24 24 24 25 25 25 26 26 26 25 24 24 25 26 28 32 36 37 36 37 37 37 38 40 39 37 36 36 37 36 33 32 32 32 33 33 32 32 33 33 33 33 32 32 33 33 30 27 26 25 25 26 28 31 33 33 34 37 39 40 40 36 33 33 34 35 35 35 34 33 32 32 32 31 30 29 28 27 26 25
29 25 21 19 18 20 22 22 24 25 25 25 25 24 24 24 25 27 30 34 36 37 36 36 37 36 34 34 35 34 33 33 34 35 34 31 30 31 31 32 32 31 31 32 32 33 32 32 33 34 34 32 29 28 26 25 25 27 29 32 33 34 36 38 40 42 41 38 36 36 37 36 36 34 32 30 30 31 32 32 31 30 30 29 28
21 18 17 16 16 18 20 22 24 25 24 24 24 24 24 25 28 31 34 36 36 36 36 38 38 34 32 31 30 29 30 31 32 33 33 32 30 31 32 32 32 32 33 33 33 32 31 32 33 35 35 33 30 29 28 28 27 27 29 31 33 35 36 38 40 42 43 41 40 40 39 38 37 35 32 29 29 31 32 32 33 33 32 31 31
17 15 13 14 17 20 21 23 23 22 22 23 24 25 27 29 31 33 35 37 37 37 38 38 35 30 29 29 27 27 28 29 31 32 32 32 31 31 32 32 33 34 35 35 34 32 32 33 35 36 36 33 32 31 30 29 29 29 29 31 34 37 38 39 41 42 43 43 43 42 40 39 38 36 33 31 30 31 31 32 33 35 35 34 33
15 12 12 15 20 22 24 24 22 22 24 25 26 27 29 32 32 33 35 38 39 39 39 37 30 26 27 28 27 26 26 28 30 31 32 32 32 31 31 32 33 34 35 36 35 34 33 34 36 37 36 35 34 34 32 30 30 31 30 31 34 38 40 42 43 44 44 44 43 41 40 39 38 37 35 33 32 31 30 31 32 34 36 37 36
19 17 18 20 23 24 24 25 25 26 27 28 29 30 31 33 35 35 37 39 40 40 39 33 26 25 27 27 26 25 26 27 29 31 32 32 32 31 31 32 33 34 34 34 34 33 34 35 37 37 37 37 37 36 35 32 31 31 31 32 34 37 41 43 44 45 45 44 42 41 39 38 38 37 37 35 33 31 31 32 33 34 36 38 37
26 26 26 27 29 29 29 28 29 30 30 30 32 33 34 35 37 38 37 38 39 38 36 31 26 26 28 27 25 24 25 27 29 30 31 31 30 30 30 31 31 31 31 30 30 31 32 35 37 38 39 39 38 38 37 34 32 31 32 32 33 36 40 43 45 45 44 42 41 40 39 37 35 35 37 37 35 33 32 33 34 35 36 37 37
29 30 31 31 32 33 33 33 33 34 34 35 36 37 37 38 38 38 36 37 38 37 34 30 28 28 28 28 27 26 24 26 29 30 31 30 29 29 30 30 30 31 31 31 31 31 32 34 37 38 40 40 40 40 38 35 33 32 32 32 33 35 39 43 45 44 43 42 41 41 39 36 32 32 36 38 37 35 34 35 36 37 37 36 35
32 34 34 35 35 36 37 38 39 40 41 41 40 40 38 37 37 36 36 36 36 34 31 29 30 31 30 29 29 28 25 25 28 31 31 30 29 29 29 30 31 32 33 34 35 35 36 37 38 39 41 42 42 41 39 35 34 34 32 31 32 34 38 42 44 44 43 43 43 42 40 37 32 32 36 39 40 38 35 35 36 37 36 36 35
36 37 38 38 39 39 40 40 41 41 41 40 39 38 37 36 35 35 35 34 33 32 32 32 33 33 33 32 31 30 28 26 28 30 30 29 28 27 28 29 30 31 33 34 36 37 38 38 39 39 40 41 42 40 37 35 35 34 33 32 31 33 37 41 44 44 44 45 44 43 42 39 35 35 39 42 42 40 36 36 37 37 36 35 35
35 35 36 36 36 36 36 36 36 36 36 36 35 35 35 34 34 34 33 32 31 31 33 33 34 33 32 32 31 32 31 27 27 30 30 29 29 28 28 28 29 30 30 32 34 36 37 37 37 37 37 38 38 38 36 35 34 34 35 33 31 32 37 42 44 45 44 45 46 44 43 42 40 41 43 43 42 40 38 37 37 37 36 35 35
30 31 31 32 32 33 33 34 34 34 34 34 33 34 34 33 32 33 32 32 31 31 31 32 32 32 31 32 33 34 34 30 27 30 32 31 31 30 30 30 30 30 30 31 32 33 34 36 36 36 36 36 37 37 36 36 35 37 37 37 35 33 37 42 44 45 46 46 46 46 45 44 44 44 44 42 40 39 38 38 38 37 36 36 36
29 30 31 32 33 34 34 33 33 33 33 33 33 33 33 32 31 31 31 31 31 30 30 30 29 29 30 32 33 34 35 34 30 29 32 32 33 32 31 31 30 29 29 30 32 33 33 35 36 36 35 35 36 36 35 35 35 37 38 39 38 36 36 41 45 45 46 47 47 47 46 44 44 44 43 41 39 38 39 37 37 38 39 39 38
31 32 33 35 36 36 35 34 34 33 32 32 33 33 32 32 31 31 30 30 29 28 29 28 26 27 28 30 31 32 33 34 33 32 32 33 34 34 33 32 31 30 29 31 33 32 33 36 36 35 35 36 38 36 34 34 33 36 39 39 38 37 37 40 44 46 45 46 47 47 47 45 43 43 42 41 39 39 40 38 37 38 40 41 39
36 37 38 38 38 37 36 36 35 33 32 32 32 32 32 32 31 30 29 29 28 28 28 28 26 27 28 29 29 29 30 32 33 33 34 34 34 34 33 32 32 32 32 33 34 32 33 35 34 33 33 35 37 36 35 34 33 35 38 37 37 36 37 39 43 47 47 45 46 46 47 45 43 43 42 41 40 40 41 41 39 39 40 40 39
40 40 40 40 39 39 38 36 35 33 32 32 31 31 32 32 31 30 29 28 27 27 27 27 27 26 26 27 27 29 30 31 31 32 33 34 35 35 35 33 33 33 33 34 35 34 35 36 35 33 33 32 33 34 34 35 35 36 35 34 35 35 36 39 42 47 48 46 44 44 45 45 44 43 42 41 40 41 42 42 42 41 40 40 39
41 41 41 41 40 39 38 35 34 32 31 31 31 32 32 32 31 30 29 28 27 26 26 26 25 25 24 24 25 26 28 30 31 31 32 32 34 36 38 37 35 34 34 34 35 35 35 36 35 35 35 35 34 33 32 33 35 36 34 33 33 33 35 38 41 45 47 47 45 43 43 44 44 43 42 43 42 42 43 43 44 42 40 40 40
40 39 39 39 39 38 37 35 33 31 31 31 31 32 32 32 32 31 30 28 27 25 25 25 24 24 23 23 23 24 25 27 29 30 30 30 32 34 37 40 40 39 37 36 35 35 35 35 35 36 36 36 35 33 32 32 34 36 35 33 33 33 35 37 40 42 44 46 45 43 43 43 43 43 44 47 47 46 45 45 45 44 43 42 40
37 36 36 36 36 35 34 33 32 32 31 32 32 32 33 33 32 31 29 27 25 24 24 24 23 23 23 22 21 22 22 23 25 26 27 28 29 31 33 37 41 43 42 40 39 39 38 38 38 38 38 37 36 35 34 33 34 33 34 35 34 34 35 36 39 41 41 43 44 43 43 43 42 44 46 47 48 48 49 48 46 45 46 45 42
33 32 32 32 32 31 31 32 33 33 33 33 33 32 32 32 31 30 28 26 24 23 23 23 23 23 23 22 21 21 21 22 23 24 25 26 27 27 29 32 36 41 45 46 45 44 42 42 42 42 41 40 39 38 37 36 35 33 32 34 35 35 35 37 39 41 41 41 43 43 43 44 45 47 46 45 47 49 49 48 48 47 47 46 44
30 30 29 29 28 28 29 30 33 35 35 35 34 33 32 31 30 29 27 26 24 23 23 22 23 23 23 23 22 21 21 22 22 23 23 25 25 25 26 28 30 34 40 44 47 47 46 46 46 45 45 43 42 41 40 39 37 34 32 34 35 36 36 37 39 42 43 44 46 45 43 44 47 48 47 46 47 48 47 48 50 50 49 47 46
30 29 29 28 27 27 28 29 31 33 35 36 36 35 33 32 31 29 28 27 25 24 23 23 22 23 23 24 23 23 22 22 22 23 24 24 25 25 26 27 28 30 33 38 43 46 47 48 47 47 46 44 43 43 42 41 39 36 34 34 36 36 37 37 38 42 46 47 48 47 46 46 46 47 47 47 49 48 47 49 51 51 49 49 48
33 32 31 29 28 27 27 28 29 30 32 34 36 36 36 35 33 31 30 29 27 26 25 23 22 22 23 24 24 24 24 23 23 23 24 25 25 25 26 27 28 29 31 34 38 41 44 45 45 45 45 45 45 44 44 43 41 39 36 36 36 36 36 38 39 41 45 49 50 49 48 48 48 47 47 47 48 48 48 50 51 51 50 50 50
36 36 35 34 33 32 32 31 31 31 31 33 35 36 37 37 36 34 33 32 31 30 29 27 26 26 26 26 26 26 26 26 26 25 25 26 26 27 27 27 28 29 30 32 36 39 41 42 42 42 42 43 43 43 43 43 42 42 40 38 37 37 37 37 39 40 43 47 50 51 51 51 51 50 48 47 47 48 48 50 51 51 51 51 52
37 37 37 38 38 39 38 38 37 35 34 34 34 36 38 39 39 38 37 36 36 35 34 34 33 32 31 30 29 29 28 28 28 28 27 27 28 28 28 28 28 29 30 32 35 39 42 42 41 41 41 41 40 41 41 41 41 42 43 41 39 39 38 38 38 40 42 44 47 49 52 53 53 53 52 51 50 50 49 50 51 51 52 52 53
41 41 40 41 41 42 42 42 42 40 39 38 37 37 38 39 41 41 41 41 40 40 39 39 39 38 37 36 35 33 32 30 29 29 30 30 30 30 30 30 29 29 30 31 33 37 41 44 44 43 42 42 41 41 41 41 41 42 42 42 42 41 40 39 39 39 40 42 44 47 50 51 53 54 54 54 53 53 53 52 52 53 53 53 53
45 45 45 45 45 45 44 44 44 44 43 42 41 41 41 41 42 43 44 44 44 44 43 43 43 42 42 41 39 38 36 34 32 30 31 31 32 32 32 32 31 31 31 31 32 34 38 43 46 46 45 44 44 44 44 43 43 43 43 43 43 43 42 42 42 41 41 41 42 45 48 50 51 52 52 53 53 54 55 56 55 55 55 54 54
48 49 49 48 48 48 47 46 45 45 45 45 45 45 45 44 44 45 45 45 46 46 46 46 46 46 45 44 43 41 40 39 37 34 33 32 33 33 34 35 34 34 33 33 33 34 35 39 44 48 49 48 47 46 46 46 46 46 46 45 45 45 44 44 44 44 44 43 42 44 46 49 51 52 52 52 52 53 54 55 56 57 57 56 56
50 51 51 50 49 49 48 48 47 47 47 47 47 47 46 46 46 45 45 44 45 45 46 47 47 47 46 45 45 44 43 43 42 40 37 35 34 34 35 36 37 37 36 35 35 35 35 36 39 43 48 51 51 50 49 48 49 49 49 49 48 47 47 46 45 46 46 46 45 44 45 47 49 52 53 53 53 53 53 54 55 57 58 58 58
51 51 52 52 52 51 50 49 49 49 49 48 48 48 47 47 47 46 45 44 44 45 46 47 47 47 47 47 46 45 44 43 44 43 41 39 37 36 36 37 38 39 39 39 38 37 37 37 38 39 42 47 51 53 53 52 51 51 51 52 52 51 50 49 48 47 47 47 47 47 47 47 48 50 52 54 54 54 54 54 55 56 58 59 59
51 51 52 52 51 51 51 51 52 52 51 50 50 50 49 49 49 49 49 49 49 49 49 49 50 49 49 48 47 45 44 43 43 44 43 41 40 38 38 38 39 39 40 41 41 41 40 40 40 40 40 42 46 50 54 55 55 54 53 53 55 55 55 54 52 51 50 49 49 49 49 49 49 50 52 53 54 55 55 55 55 56 57 58 59
56 53 53 52 51 51 52 53 54 54 53 53 53 53 52 52 52 52 53 53 53 52 51 51 51 51 50 49 48 46 44 43 43 44 44 43 41 40 40 40 40 40 41 42 43 44 44 44 43 42 42 42 43 46 49 53 56 57 56 55 55 56 57 57 57 56 55 54 52 52 52 52 51 52 52 53 54 55 56 56 56 57 57 58 59
60 58 57 56 56 56 56 56 56 56 56 55 54 54 54 54 54 54 55 54 54 53 52 51 51 50 51 51 49 46 44 41 40 41 42 42 41 40 40 41 41 42 42 43 44 45 46 47 47 46 45 45 45 46 46 49 52 55 57 58 57 57 57 58 59 59 59 58 57 56 56 55 54 54 54 55 55 56 57 57 58 58 59 59 60
59 58 57 57 58 59 59 59 59 58 56 54 53 52 52 52 52 53 54 53 52 50 49 49 48 47 48 48 45 42 38 35 34 35 38 40 41 41 42 43 43 43 44 45 46 47 48 48 49 49 50 49 49 48 48 48 49 51 54 57 58 58 58 59 60 62 62 62 62 61 61 60 59 58 58 58 58 58 58 59 59 60 61 62 62
57 57 55 56 57 58 59 60 59 57 56 54 52 51 51 50 49 51 52 51 49 48 46 45 44 41 40 37 35 34 32 31 31 32 34 37 40 42 44 45 46 47 48 47 48 48 49 50 50 51 52 52 52 52 52 51 51 51 52 53 55 57 58 59 60 62 63 65 66 66 66 65 64 64 63 62 62 61 61 61 61 62 62 63 64
57 55 55 55 56 57 58 58 57 56 55 54 52 50 49 49 48 50 50 49 48 46 44 42 40 36 31 26 27 29 32 34 35 35 36 38 41 43 44 45 47 48 49 50 51 50 50 51 52 52 53 54 54 54 55 54 54 54 54 54 54 55 57 59 60 61 62 64 66 68 69 69 69 68 68 67 67 66 65 65 64 64 64 65 65
56 55 55 55 56 56 56 56 56 55 54 53 51 49 49 48 47 48 49 49 48 47 44 41 37 34 30 29 31 35 39 40 39 39 41 41 42 44 45 45 46 47 48 50 51 52 53 53 54 54 54 55 55 55 55 56 56 57 57 57 57 57 57 59 60 61 62 63 64 65 67 68 70 70 70 70 70 70 69 69 68 68 67 67 66
57 56 55 55 55 55 54 54 54 54 54 53 52 51 50 49 48 48 49 50 50 49 47 43 40 38 38 39 41 43 44 43 42 42 42 42 43 43 44 44 45 45 46 47 49 51 54 56 57 58 58 58 57 57 57 57 58 58 59 60 60 61 61 61 61 62 63 64 65 66 66 66 67 68 69 70 71 71 71 71 71 71 71 71 70
58 58 57 57 57 56 55 54 53 53 53 53 52 53 52 51 50 50 50 51 52 52 51 49 47 45 44 45 45 46 46 46 45 45 44 44 45 45 44 44 45 45 45 46 47 49 51 54 57 60 61 61 61 61 61 62 61 61 61 62 63 64 64 64 64 63 63 64 66 67 67 67 67 68 69 69 70 71 72 72 72 73 74 74 74
60 59 59 59 59 59 58 57 56 55 55 54 54 54 54 54 54 54 53 53 53 54 55 54 53 52 50 50 49 50 50 50 49 49 48 48 48 47 46 47 47 47 46 47 48 49 51 53 55 57 59 61 61 63 64 65 65 64 65 65 65 66 67 67 67 67 66 66 68 69 69 68 69 70 70 71 71 72 72 73 73 74 75 76 76
62 62 61 62 63 63 62 61 60 60 59 58 57 58 58 58 57 57 56 55 55 56 56 57 57 56 56 55 55 55 55 56 57 56 54 52 51 50 50 50 50 50 49 49 48 49 51 54 55 56 56 57 58 61 63 64 64 65 66 67 68 69 69 70 70 70 70 70 70 71 72 71 70 71 72 72 72 73 74 74 75 75 75 76 77
64 64 63 64 65 65 64 64 63 63 63 62 61 61 61 61 60 59 58 58 57 57 57 58 59 59 59 59 60 60 61 62 64 63 61 58 56 54 53 52 52 52 52 51 51 51 52 54 55 56 56 56 57 58 60 61 62 64 65 67 69 70 71 72 72 73 72 72 73 74 75 75 74 73 74 74 74 75 76 76 76 76 76 77 78
66 65 65 67 67 66 65 65 65 65 65 64 63 63 63 62 62 61 60 60 59 59 59 60 61 62 62 63 64 65 66 67 67 67 65 62 60 58 57 55 54 53 52 52 53 54 54 55 56 56 57 57 58 58 59 60 61 62 63 65 67 69 71 73 74 75 75 75 75 75 76 77 77 76 77 78 77 77 78 79 78 77 77 77 78
69 68 68 69 68 67 67 67 67 67 67 66 66 65 64 64 63 63 63 62 62 62 62 63 64 65 66 67 68 69 70 70 69 67 65 64 62 60 59 58 57 55 54 54 54 55 56 57 57 57 58 59 59 59 60 61 62 63 64 65 65 67 69 71 74 76 77 77 78 77 77 78 79 78 78 80 80 80 81 82 81 80 79 79 79
71 70 70 70 70 70 70 70 70 69 69 69 68 68 67 66 66 66 66 65 65 65 66 66 67 68 70 71 71 72 72 71 69 67 65 64 62 61 60 59 58 57 56 56 57 57 58 59 59 59 60 61 61 61 61 62 63 64 65 66 67 68 68 70 72 74 76 78 79 80 80 80 81 80 80 82 83 82 83 84 84 83 83 83 82
68 68 69 70 71 71 72 72 72 72 72 71 71 70 70 69 68 68 67 67 67 67 68 69 70 71 72 73 72 72 71 70 68 66 64 63 63 62 61 60 59 59 58 58 59 60 60 61 61 61 62 62 62 63 63 64 64 66 67 68 70 71 71 71 72 74 75 76 79 81 82 82 82 83 83 84 85 85 85 86 86 85 85 86 85
64 65 66 67 69 70 70 72 73 73 74 73 73 72 72 71 70 69 69 68 69 69 70 70 71 72 72 72 71 70 68 67 65 64 63 63 63 62 62 61 60 60 60 61 61 62 62 63 63 64 64 65 66 66 67 67 67 68 69 70 71 72 73 74 75 76 77 78 79 81 81 81 82 83 84 86 87 88 88 88 88 87 87 87 87
61 62 63 64 66 67 68 69 71 71 72 73 73 73 72 71 71 70 70 70 70 70 71 71 71 71 70 69 67 66 65 64 64 63 63 63 63 63 63 62 62 62 62 63 63 64 65 66 66 66 67 68 69 70 70 71 71 71 71 72 72 73 74 76 77 79 80 81 82 83 83 82 82 82 83 84 85 87 89 90 91 91 90 90 89
Wind_Direction
282 281 279 278 279 281 282 282 281 278 277 276 273 271 270 271 275 279 279 277 276 276 278 279 282 284 286 285 283 281 278 275 273 271 270 268 265 260 254 250 250 249 247 249 252 253 251 251 255 262 268 270 267 264 261 256 252 251 250 249 246 244 241 238 236 236 236 235 235 237 240 244 245 247 248 249 249 249 248 247 246 244 243 244 245
281 280 280 281 283 284 284 283 280 277 276 275 274 273 273 275 277 278 275 273 274 276 280 284 288 290 289 286 282 279 277 273 272 270 268 265 263 259 253 248 246 244 243 246 250 250 249 251 256 261 266 267 264 262 261 258 254 251 249 248 245 242 239 238 237 236 235 235 236 239 243 245 245 246 248 249 249 247 245 243 244 244 244 245 246
279 281 283 286 287 286 284 280 277 276 274 272 270 270 274 277 277 274 271 272 277 282 287 291 293 292 289 284 280 278 276 273 271 269 267 264 262 258 251 245 241 238 240 246 249 249 248 252 258 262 265 263 261 260 259 258 256 253 250 248 246 242 238 236 236 233 231 235 240 242 245 246 245 246 249 250 249 248 244 240 240 242 244 245 247
280 284 285 286 287 282 277 273 271 269 267 262 259 263 271 274 275 272 272 277 284 288 293 296 297 294 287 283 280 277 276 273 269 267 266 263 259 253 245 240 236 234 240 245 247 248 248 253 259 262 263 260 258 258 259 259 258 254 252 250 247 244 241 237 236 232 228 232 239 242 244 246 245 245 249 251 250 250 246 241 238 239 241 244 249
284 286 281 277 275 270 266 263 263 262 262 260 259 265 269 270 272 275 279 285 290 293 297 300 299 294 287 284 282 277 275 272 266 263 263 259 252 246 239 235 233 234 239 242 244 246 249 255 260 261 260 258 256 257 259 262 262 257 253 251 248 245 243 241 238 235 232 231 233 237 241 243 243 243 247 250 250 250 248 245 242 239 240 242 248
279 274 267 261 256 260 263 259 259 259 261 264 268 272 271 272 277 282 288 292 295 297 299 300 297 290 284 286 286 279 273 268 261 256 257 255 247 240 236 233 233 234 237 239 241 245 250 256 259 259 258 256 256 256 259 264 266 261 254 250 248 246 245 243 241 240 239 236 234 235 237 240 240 240 243 248 250 250 248 247 246 244 242 242 246
264 257 251 243 238 245 252 254 257 261 264 270 277 281 283 286 289 292 295 297 297 297 298 298 292 283 282 286 288 282 271 263 256 251 250 251 246 239 235 234 234 236 238 239 242 245 250 255 257 257 256 256 256 255 258 264 267 264 255 248 245 245 244 244 243 243 244 244 241 237 237 239 240 240 242 245 249 250 248 248 249 248 245 245 246
245 235 223 225 232 238 245 254 262 270 276 281 286 289 292 294 295 297 298 297 297 296 297 297 288 280 283 287 289 284 271 260 254 248 246 246 246 243 239 239 240 240 242 243 245 245 247 251 253 254 254 255 256 257 260 264 265 263 257 249 243 242 242 243 244 244 245 247 246 241 239 241 241 241 242 245 249 250 249 248 248 248 247 247 248
238 236 232 235 243 250 257 264 271 277 282 286 289 290 292 292 294 297 297 295 295 294 295 296 288 281 286 288 288 283 272 261 253 247 244 243 244 245 244 245 245 245 245 244 243 241 242 246 248 249 249 252 256 259 262 265 262 259 257 251 244 240 240 241 242 244 246 247 246 242 240 241 242 242 243 244 248 249 249 247 245 245 245 246 249
244 246 248 250 254 260 265 270 274 278 283 286 287 289 290 291 293 294 293 291 289 290 292 293 287 283 284 286 286 281 272 262 253 245 242 241 243 245 245 246 246 245 243 242 241 240 241 244 245 246 247 250 255 259 263 264 259 256 254 250 245 240 239 240 241 244 245 245 244 241 239 239 241 243 243 244 246 248 248 245 242 242 242 244 248
248 250 254 257 259 262 266 271 274 276 280 283 285 286 288 290 291 291 289 286 286 289 289 285 282 281 280 281 282 280 273 263 253 244 240 240 242 245 246 246 247 247 247 246 246 246 245 245 245 246 247 250 254 259 262 259 256 254 252 249 244 240 238 239 241 243 244 242 241 240 238 236 239 244 245 243 243 245 246 244 241 241 242 243 246
252 253 256 260 263 265 268 271 273 275 278 281 283 285 287 288 288 288 286 285 285 283 278 273 275 277 277 277 277 275 271 264 254 244 240 240 241 243 245 245 245 247 248 249 249 248 247 247 247 248 250 252 255 258 257 254 253 253 250 249 246 241 238 238 240 242 243 241 240 240 239 235 236 242 243 241 240 241 243 242 241 241 242 244 246
255 257 259 262 266 269 271 273 275 278 280 283 285 285 286 286 286 285 284 283 280 273 267 267 270 273 275 276 276 273 269 265 255 243 238 238 240 243 244 244 243 244 245 246 246 246 246 246 247 249 251 253 253 253 252 249 249 249 248 247 247 243 238 235 238 241 242 241 239 239 238 235 233 237 240 240 238 238 241 241 240 242 244 245 246
260 263 266 269 272 274 277 280 282 284 286 287 286 284 284 284 283 283 282 279 274 268 265 265 267 269 270 271 273 274 272 267 253 241 237 238 241 245 247 246 245 245 246 246 246 245 245 245 245 245 247 250 251 249 248 246 247 247 247 247 247 245 239 234 235 239 241 241 240 238 237 235 234 235 238 240 240 240 243 242 241 244 245 245 245
269 271 273 275 276 278 281 283 285 286 287 286 284 282 281 281 280 280 279 275 270 266 263 262 263 265 267 266 268 271 273 269 256 243 240 242 245 248 249 248 247 247 247 247 247 246 244 243 242 242 244 247 250 248 246 246 248 249 249 249 248 245 240 235 234 238 242 242 242 240 238 238 238 239 240 242 242 243 244 242 241 243 245 245 246
271 273 274 275 277 280 281 283 284 284 284 283 281 280 279 279 277 276 274 271 268 265 263 261 262 265 267 265 264 266 268 268 262 250 243 244 247 249 249 249 248 249 248 245 244 244 243 243 242 242 243 246 248 246 245 247 251 253 251 249 249 246 240 236 232 236 241 243 243 242 241 240 241 242 242 242 242 242 241 240 239 242 246 248 249
269 271 273 275 278 280 281 282 283 282 281 280 280 280 279 278 276 273 270 269 267 266 264 262 260 260 261 261 261 262 263 264 263 257 250 248 249 250 250 250 249 249 248 244 242 241 242 243 243 243 243 244 247 248 248 249 252 256 254 250 249 246 241 236 232 233 239 243 244 244 243 242 242 242 241 241 240 240 240 240 240 243 247 250 251
271 272 273 276 277 278 280 282 282 281 281 281 280 279 279 277 275 272 270 269 268 267 266 263 260 259 259 258 257 258 259 261 261 259 255 252 251 250 249 250 249 248 247 245 243 241 242 243 243 244 243 243 247 249 250 248 247 251 253 249 247 244 240 237 233 231 235 241 245 245 244 244 243 241 240 240 241 242 243 244 244 245 248 251 251
273 274 275 276 276 278 279 280 280 280 280 280 279 279 278 276 274 273 271 270 269 269 267 264 263 263 263 261 257 254 255 258 259 258 255 252 249 248 247 248 248 247 246 245 244 242 243 245 245 245 244 244 245 247 249 249 246 247 251 249 245 243 240 238 235 232 233 238 242 244 244 243 241 239 240 241 242 245 247 247 247 247 250 253 252
274 274 275 276 277 278 278 278 278 277 277 277 278 278 277 276 274 273 272 271 270 270 269 266 265 266 267 267 263 257 255 257 259 258 256 252 248 245 244 244 243 243 243 243 242 241 242 244 245 245 245 245 245 245 248 251 249 249 251 250 245 243 241 239 236 233 233 236 239 242 242 241 239 237 238 240 241 244 246 248 248 249 254 257 254
274 274 274 275 276 277 277 276 274 272 271 272 274 275 276 275 275 274 273 272 270 270 269 267 266 267 269 270 270 266 262 261 261 259 257 254 251 246 243 241 239 239 240 239 237 237 239 242 243 244 244 244 245 247 249 251 251 250 250 248 245 242 241 238 235 232 232 235 238 240 240 239 238 237 238 240 241 242 243 246 247 251 256 256 253
274 274 274 274 274 275 274 273 270 268 266 267 269 271 273 274 275 275 274 272 271 271 269 268 267 268 269 271 273 273 271 268 266 263 261 257 254 250 246 241 238 238 238 237 236 238 241 242 242 242 242 244 246 248 250 251 250 249 248 247 245 242 240 237 234 230 228 232 236 238 239 237 236 236 237 239 242 242 243 245 247 251 254 253 251
274 274 273 273 274 274 272 270 266 265 264 264 266 269 271 272 273 274 273 272 273 272 271 270 268 267 267 269 271 273 274 271 269 267 265 262 258 254 250 245 241 238 237 237 239 241 242 243 243 243 245 247 247 249 250 249 247 246 244 244 245 242 239 236 233 228 225 228 232 235 237 238 237 237 238 240 242 243 244 246 249 251 252 252 252
274 273 274 274 274 274 272 269 266 264 263 262 264 266 268 268 268 269 270 271 273 272 271 271 270 268 267 266 266 269 271 271 269 268 267 266 264 259 254 249 245 242 239 238 239 240 240 241 243 245 247 248 248 249 250 247 245 246 242 240 241 240 238 235 232 228 224 225 230 232 235 238 239 240 241 242 244 245 245 246 248 250 251 251 251
273 273 273 274 273 273 273 272 269 266 264 263 262 263 264 264 264 264 265 267 269 270 270 270 271 271 270 268 265 264 264 265 266 266 265 266 267 265 261 256 252 247 244 241 239 239 240 241 242 244 246 246 246 246 247 246 246 246 244 240 238 237 236 235 233 229 224 225 229 231 232 235 238 240 241 243 244 245 245 245 245 247 249 249 250
272 272 272 274 274 273 273 275 274 272 269 266 264 263 263 263 262 263 264 265 267 268 268 269 271 274 276 275 272 268 264 261 260 260 260 262 264 265 264 262 259 254 250 246 241 240 242 244 245 244 243 243 243 244 246 246 245 245 244 241 238 235 234 233 233 232 228 226 229 232 233 234 236 238 239 241 244 244 244 245 245 246 247 248 250
274 274 274 274 273 273 273 275 275 275 273 271 268 266 265 265 264 263 264 265 265 266 267 269 271 275 279 280 280 277 272 266 261 258 257 257 258 260 262 262 261 258 255 251 245 240 241 245 248 248 245 243 242 244 245 245 244 242 242 242 240 237 235 233 233 233 232 230 230 233 235 236 237 238 238 239 242 244 244 245 246 246 246 247 249
276 275 275 275 274 272 272 273 274 274 274 273 270 268 265 265 265 265 264 265 265 266 267 268 270 273 277 280 281 281 277 273 267 262 257 255 255 256 258 259 260 259 257 254 250 244 241 243 247 250 250 249 246 246 247 247 245 243 242 242 242 240 238 236 235 234 235 234 233 233 235 237 238 240 240 239 240 242 244 245 246 247 247 247 249
275 274 275 275 274 274 272 271 271 272 272 273 273 272 269 267 265 264 264 264 264 266 267 269 271 273 275 277 280 280 279 275 271 266 261 257 254 253 254 255 256 258 259 257 254 249 244 242 243 246 250 251 251 250 249 250 249 248 245 243 243 243 241 240 239 237 237 237 236 235 235 236 238 240 241 242 242 243 243 244 245 246 247 248 249
275 274 275 274 274 274 273 271 270 271 272 273 274 274 274 271 269 266 264 264 264 265 266 268 270 272 274 276 277 279 278 276 274 271 266 261 257 255 253 252 252 254 256 257 256 254 249 245 244 244 246 249 250 251 251 252 252 252 251 249 247 246 245 244 243 242 241 240 240 239 237 237 237 238 240 241 241 242 243 244 244 245 246 247 248
277 277 276 275 274 274 274 273 272 272 272 273 274 274 274 274 272 270 268 266 266 266 267 268 269 271 273 274 275 276 276 275 274 272 270 266 261 258 255 254 253 252 252 253 254 254 253 249 246 245 245 246 248 250 251 253 253 253 253 253 252 250 248 246 246 246 245 244 242 242 240 239 239 239 240 240 241 241 242 243 244 245 245 246 246
276 276 275 274 274 274 274 273 272 272 271 271 272 272 271 271 270 268 268 268 268 269 269 270 270 271 272 273 274 274 275 275 273 271 270 267 264 262 260 257 255 253 252 251 252 252 253 253 250 248 246 246 246 248 249 251 252 254 254 255 255 254 253 250 247 247 248 247 246 244 243 242 241 241 242 242 242 241 241 242 243 244 245 246 246
274 273 273 273 273 273 273 271 270 270 271 270 270 269 268 267 266 264 264 265 267 269 271 271 271 271 271 272 272 273 274 274 271 268 266 264 263 263 262 261 258 256 254 253 252 252 252 252 253 252 250 248 247 247 248 248 250 251 252 253 254 255 255 254 251 249 249 249 249 248 246 245 244 243 243 243 244 243 243 242 243 244 246 247 247
274 274 273 272 271 270 269 269 268 269 268 268 268 268 268 267 266 265 264 265 267 270 272 272 271 271 272 272 272 273 273 273 271 266 262 260 260 261 262 262 261 259 257 255 254 253 252 252 252 252 252 251 250 248 248 248 249 249 250 250 252 253 254 255 254 253 251 250 249 249 248 248 247 246 245 245 245 245 245 244 244 245 246 247 248
272 272 271 270 269 269 268 268 269 269 269 269 270 269 269 269 269 268 268 269 271 273 275 275 274 273 273 273 273 273 273 272 270 264 260 257 257 259 260 261 261 260 260 258 257 256 254 253 252 252 251 252 252 251 250 249 248 249 250 250 251 251 252 254 254 255 254 253 251 249 249 249 249 248 247 247 246 246 246 246 246 246 246 247 248
269 269 269 269 269 269 270 271 271 272 272 272 271 270 269 269 270 270 271 272 273 275 276 277 276 276 275 274 272 271 270 269 267 262 259 257 257 258 260 260 260 260 260 260 259 258 257 255 254 253 252 251 251 251 252 251 250 249 249 250 250 251 251 252 253 254 255 255 254 253 251 250 249 249 249 248 248 248 248 248 248 248 248 248 248
269 269 268 267 268 268 269 270 272 273 273 271 271 270 270 270 270 270 271 272 274 275 276 277 277 278 278 274 268 264 263 263 264 262 260 258 257 258 259 259 260 260 260 260 260 259 258 257 256 255 254 253 251 251 250 251 252 251 251 250 250 251 251 251 251 252 253 254 254 254 254 253 252 251 251 250 249 249 249 248 248 248 249 249 249
270 269 269 268 268 268 268 269 270 270 270 269 269 269 270 271 271 271 273 274 276 276 278 279 280 281 280 272 258 252 255 261 267 267 264 261 259 259 260 260 260 260 260 260 259 259 258 257 257 256 256 255 254 253 251 250 250 251 251 251 251 251 251 251 250 250 251 251 252 252 253 253 254 254 253 253 252 251 250 250 249 249 249 249 249
269 269 269 268 268 268 268 269 269 269 269 269 269 269 269 270 271 273 274 276 277 278 279 280 280 280 277 263 248 250 260 268 271 270 268 265 263 263 263 263 262 260 259 259 258 257 257 256 256 256 256 256 255 254 254 252 251 251 250 250 250 250 250 250 250 249 249 250 250 251 251 252 253 253 254 254 254 253 253 252 251 251 250 249 249
268 268 268 268 268 268 268 269 269 269 269 269 270 269 269 270 271 273 275 277 278 278 277 276 274 271 266 259 258 264 269 271 271 271 271 269 266 264 263 264 263 262 260 259 258 257 255 254 254 255 255 256 255 255 255 255 254 253 252 251 250 250 249 249 249 249 249 249 249 250 250 250 251 252 252 253 253 254 253 253 252 252 251 251 250
267 267 267 267 267 267 267 268 270 270 271 271 272 271 271 272 272 274 276 277 279 279 278 276 272 268 264 263 265 268 271 271 272 273 274 273 271 268 266 265 264 263 262 261 260 258 257 255 254 253 253 254 255 255 256 257 256 255 254 253 252 251 250 249 249 248 248 248 248 249 249 249 249 250 250 251 251 252 252 252 251 251 251 251 251
266 266 266 266 265 265 266 267 268 269 271 271 272 272 273 274 274 275 275 276 278 279 279 278 276 273 271 269 269 271 273 274 275 276 278 278 277 274 272 271 269 267 265 264 262 261 259 258 256 255 255 254 255 256 257 258 258 257 256 255 254 252 251 250 249 249 249 249 249 249 249 249 249 249 249 249 250 250 251 250 250 249 249 249 250
265 265 265 265 265 265 265 266 266 267 268 268 269 270 271 272 273 274 274 275 275 277 278 279 279 278 278 277 277 278 279 281 281 281 280 281 280 279 277 277 276 273 270 267 266 265 263 261 259 258 257 256 257 257 258 258 258 258 257 256 255 255 254 252 251 250 249 250 251 251 250 249 249 250 250 249 250 250 250 251 250 249 249 249 249
264 263 264 264 265 265 266 266 266 266 266 266 266 267 269 270 271 272 273 273 273 274 275 276 277 278 279 280 281 282 283 285 286 285 283 282 281 280 279 279 279 277 274 271 269 268 267 266 264 262 260 259 259 259 259 259 258 258 257 257 256 256 255 255 254 252 250 249 250 251 251 250 249 250 250 250 250 251 251 251 251 251 251 250 250
263 263 264 264 264 265 265 266 266 266 266 265 265 265 266 268 270 271 272 272 272 272 272 273 273 274 275 276 277 278 280 282 283 284 283 282 281 280 279 278 277 276 275 274 272 271 270 269 268 266 265 263 262 261 261 261 260 259 258 257 256 256 256 256 256 256 254 252 251 251 252 252 250 250 251 251 250 251 251 251 251 251 252 252 252
262 262 263 264 264 264 265 265 265 265 265 265 265 265 265 266 267 269 270 271 271 271 270 270 270 271 272 272 273 274 276 278 279 280 280 279 279 278 278 277 275 274 273 273 273 272 272 271 270 269 269 267 266 265 264 264 263 262 261 259 258 257 256 256 257 257 257 256 255 254 254 254 253 252 252 252 252 252 252 252 252 251 251 252 252
262 262 262 263 264 264 264 264 263 263 263 264 264 264 265 265 266 267 268 269 269 269 269 269 269 270 270 271 272 273 275 276 277 277 276 276 276 276 276 275 274 274 273 273 273 272 272 272 271 271 271 270 269 269 268 268 267 266 265 264 262 260 259 258 257 257 257 257 257 256 256 256 256 255 254 254 254 253 253 253 253 253 252 252 252
261 262 262 262 262 262 262 262 262 262 262 262 262 263 263 264 265 266 267 268 268 269 269 269 269 269 270 271 272 273 274 274 274 274 274 274 273 273 273 273 273 273 273 273 273 273 273 273 273 273 272 272 271 270 270 269 269 269 268 268 267 265 263 261 260 259 258 258 257 256 256 256 256 256 256 256 255 255 254 254 254 254 254 253 253
260 260 260 260 260 260 260 261 261 261 261 262 262 262 262 263 264 265 266 267 267 268 268 268 268 269 270 271 271 272 272 272 272 272 272 272 272 272 272 272 271 272 272 272 272 273 274 275 275 275 275 274 273 272 271 270 268 268 267 267 267 267 266 265 264 263 262 260 259 258 256 256 256 256 257 257 258 257 256 256 255 254 254 254 254
259 259 259 259 260 260 260 260 261 261 261 262 262 262 263 263 264 265 265 266 266 267 267 268 269 269 270 271 272 272 272 272 272 272 272 272 272 272 272 272 271 271 271 271 272 273 274 275 275 275 275 275 275 274 274 273 271 270 268 267 266 266 266 266 266 265 264 263 262 261 259 257 256 256 256 257 258 259 259 258 258 257 255 255 254
259 259 259 259 259 260 260 261 261 261 262 262 263 263 264 264 265 265 266 266 267 268 268 269 270 271 272 272 273 273 273 273 273 273 273 273 273 273 273 272 272 271 271 271 272 272 274 275 275 275 275 275 275 275 275 275 274 272 271 269 267 266 265 265 265 264 264 264 264 263 262 260 259 258 257 256 257 258 259 259 259 258 258 257 256
Height
10697 10698 10699 10699 10699 10700 10701 10701 10702 10702 10702 10703 10705 10707 10708 10709 10710 10710 10709 10708 10707 10706 10706 10705 10703 10702 10701 10700 10701 10702 10702 10703 10703 10704 10705 10707 10709 10710 10712 10713 10713 10715 10716 10718 10719 10721 10721 10722 10723 10723 10724 10725 10726 10726 10726 10726 10727 10728 10729 10730 10732 10733 10735 10737 10738 10739 10741 10742 10744 10745 10747 10748 10749 10750 10751 10752 10752 10753 10754 10755 10757 10758 10759 10760 10761
10692 10693 10694 10694 10694 10694 10695 10696 10696 10697 10697 10698 10700 10701 10703 10704 10704 10705 10704 10704 10703 10702 10701 10700 10699 10697 10695 10694 10695 10695 10696 10696 10697 10698 10699 10701 10703 10705 10706 10708 10709 10710 10712 10713 10715 10716 10717 10718 10718 10719 10720 10721 10722 10722 10722 10723 10723 10724 10725 10726 10728 10730 10731 10733 10735 10736 10738 10739 10741 10742 10743 10745 10746 10747 10748 10749 10750 10751 10751 10752 10754 10755 10757 10757 10758
10686 10687 10689 10689 10689 10689 10689 10690 10691 10692 10693 10694 10695 10696 10698 10699 10699 10700 10700 10700 10699 10698 10697 10696 10694 10692 10690 10689 10688 10689 10689 10690 10690 10692 10693 10696 10697 10699 10701 10702 10704 10705 10707 10709 10711 10712 10713 10714 10714 10716 10717 10718 10718 10719 10719 10719 10720 10721 10721 10722 10724 10725 10727 10729 10731 10732 10734 10736 10737 10739 10740 10741 10743 10744 10745 10746 10747 10748 10749 10750 10751 10752 10754 10755 10755
10681 10682 10685 10685 10684 10683 10683 10685 10686 10688 10689 10690 10691 10692 10693 10694 10695 10695 10696 10696 10695 10694 10692 10690 10688 10686 10685 10684 10683 10683 10683 10684 10685 10686 10688 10690 10692 10694 10696 10697 10699 10701 10703 10705 10707 10708 10709 10710 10711 10712 10713 10714 10715 10715 10716 10716 10716 10717 10718 10718 10720 10722 10723 10725 10727 10729 10730 10732 10733 10735 10737 10738 10739 10741 10742 10743 10744 10745 10747 10747 10748 10749 10750 10752 10753
10677 10679 10681 10681 10679 10678 10678 10681 10683 10684 10685 10686 10687 10688 10689 10690 10690 10691 10691 10691 10690 10689 10687 10685 10683 10681 10680 10679 10677 10677 10677 10678 10680 10681 10682 10685 10687 10689 10691 10692 10694 10696 10698 10700 10702 10704 10705 10706 10707 10708 10710 10711 10712 10712 10712 10713 10713 10714 10714 10715 10716 10718 10720 10722 10723 10725 10726 10728 10730 10731 10733 10734 10736 10738 10739 10741 10742 10743 10744 10745 10745 10746 10747 10748 10749
10674 10676 10678 10678 10676 10674 10675 10677 10680 10681 10682 10683 10683 10684 10685 10686 10686 10686 10685 10685 10684 10683 10681 10680 10677 10675 10674 10674 10673 10672 10673 10674 10675 10676 10678 10680 10682 10684 10686 10687 10690 10692 10693 10695 10697 10699 10701 10702 10703 10704 10706 10707 10708 10709 10709 10710 10710 10711 10711 10712 10713 10715 10717 10719 10720 10722 10723 10724 10726 10727 10729 10731 10732 10734 10736 10737 10738 10739 10741 10742 10743 10744 10744 10745 10746
10671 10671 10674 10675 10672 10671 10672 10675 10677 10678 10679 10679 10679 10679 10680 10680 10680 10680 10679 10678 10678 10677 10676 10675 10673 10671 10669 10668 10668 10668 10668 10669 10671 10672 10673 10675 10677 10679 10681 10683 10685 10687 10689 10691 10693 10695 10698 10699 10700 10701 10702 10703 10704 10705 10706 10707 10707 10708 10708 10709 10710 10711 10713 10715 10717 10719 10720 10721 10723 10724 10726 10727 10729 10731 10733 10734 10735 10736 10738 10739 10740 10741 10741 10742 10743
10668 10668 10670 10670 10669 10668 10670 10672 10674 10674 10674 10674 10674 10674 10674 10674 10674 10674 10672 10671 10671 10671 10670 10669 10668 10666 10665 10664 10663 10664 10664 10665 10667 10668 10669 10671 10672 10675 10677 10679 10681 10683 10685 10687 10689 10691 10694 10695 10696 10697 10697 10698 10700 10701 10702 10703 10704 10704 10705 10705 10706 10708 10709 10711 10713 10715 10716 10718 10720 10722 10723 10725 10726 10728 10729 10731 10732 10733 10734 10735 10736 10737 10738 10739 10740
10665 10666 10667 10667 10666 10666 10668 10669 10670 10670 10670 10670 10669 10669 10669 10668 10668 10669 10667 10666 10665 10664 10663 10664 10663 10662 10661 10660 10659 10660 10660 10661 10663 10664 10666 10667 10669 10671 10673 10675 10676 10678 10680 10683 10685 10687 10688 10690 10691 10692 10693 10694 10695 10697 10698 10699 10700 10701 10701 10702 10702 10704 10705 10707 10709 10711 10713 10715 10717 10718 10720 10721 10723 10724 10726 10727 10728 10729 10730 10731 10732 10733 10734 10735 10737
10661 10662 10662 10662 10662 10663 10665 10665 10665 10665 10665 10665 10664 10663 10664 10664 10664 10664 10663 10661 10659 10658 10658 10659 10658 10658 10657 10656 10656 10656 10657 10657 10659 10660 10662 10664 10666 10667 10669 10671 10672 10674 10676 10678 10680 10681 10683 10685 10686 10687 10689 10690 10691 10692 10693 10695 10696 10697 10697 10698 10699 10700 10701 10703 10705 10707 10709 10711 10713 10715 10716 10717 10719 10720 10722 10723 10724 10725 10726 10727 10727 10729 10730 10731 10733
10657 10657 10658 10658 10658 10659 10660 10661 10661 10661 10661 10660 10660 10659 10659 10659 10659 10659 10658 10656 10655 10654 10654 10654 10654 10653 10653 10653 10653 10653 10653 10654 10655 10656 10658 10660 10662 10664 10665 10667 10668 10669 10671 10673 10675 10677 10679 10680 10682 10683 10684 10686 10687 10688 10689 10690 10691 10692 10693 10694 10694 10695 10697 10699 10701 10703 10705 10707 10709 10711 10712 10713 10714 10716 10717 10718 10719 10720 10721 10722 10723 10724 10726 10727 10729
10652 10652 10653 10653 10654 10655 10656 10657 10657 10657 10657 10656 10656 10655 10655 10655 10654 10654 10653 10652 10652 10651 10650 10649 10648 10648 10649 10649 10650 10650 10650 10651 10651 10653 10654 10656 10658 10660 10661 10663 10664 10665 10667 10669 10671 10673 10675 10676 10678 10680 10680 10682 10683 10683 10685 10686 10687 10688 10689 10690 10690 10691 10693 10695 10697 10699 10701 10703 10704 10706 10708 10709 10709 10711 10712 10712 10714 10715 10717 10718 10719 10720 10722 10723 10725
10647 10648 10648 10649 10650 10651 10652 10653 10653 10653 10652 10652 10651 10650 10650 10650 10650 10649 10648 10648 10648 10647 10645 10645 10644 10644 10644 10644 10645 10646 10647 10648 10648 10649 10651 10653 10655 10656 10658 10659 10660 10661 10663 10664 10666 10668 10670 10672 10675 10676 10676 10677 10678 10679 10681 10682 10683 10684 10684 10685 10686 10687 10688 10690 10693 10694 10696 10697 10699 10700 10702 10703 10704 10705 10706 10707 10708 10711 10713 10714 10716 10717 10718 10720 10721
10642 10643 10643 10644 10645 10646 10647 10648 10648 10648 10647 10647 10646 10645 10645 10646 10645 10645 10644 10644 10644 10643 10642 10642 10641 10640 10640 10640 10640 10641 10643 10644 10645 10646 10647 10649 10651 10652 10653 10655 10656 10657 10659 10660 10661 10663 10665 10667 10670 10671 10671 10672 10673 10675 10677 10678 10679 10679 10680 10681 10682 10683 10684 10685 10688 10690 10692 10693 10694 10695 10697 10698 10699 10700 10701 10703 10705 10708 10710 10711 10712 10713 10715 10716 10717
10637 10638 10638 10639 10640 10641 10642 10643 10643 10642 10642 10641 10641 10641 10640 10641 10641 10640 10640 10639 10639 10639 10638 10638 10638 10637 10637 10637 10636 10637 10638 10640 10641 10643 10644 10645 10646 10648 10649 10650 10652 10653 10655 10656 10656 10658 10660 10661 10663 10665 10666 10667 10668 10670 10672 10673 10674 10674 10675 10676 10678 10679 10680 10681 10684 10686 10688 10689 10690 10692 10693 10694 10696 10697 10698 10700 10703 10705 10706 10707 10709 10710 10711 10712 10713
10633 10634 10634 10634 10635 10636 10637 10638 10638 10638 10637 10637 10637 10636 10636 10636 10637 10636 10636 10635 10635 10635 10634 10634 10633 10633 10633 10633 10633 10633 10633 10634 10637 10639 10640 10641 10642 10643 10645 10646 10648 10649 10651 10651 10652 10654 10655 10656 10657 10660 10662 10662 10662 10664 10667 10668 10669 10669 10671 10672 10673 10675 10676 10678 10680 10682 10684 10685 10686 10688 10689 10691 10693 10694 10696 10697 10699 10701 10702 10703 10705 10706 10707 10708 10708
10630 10630 10630 10630 10631 10631 10632 10633 10633 10633 10633 10632 10632 10632 10631 10632 10632 10632 10632 10631 10631 10630 10630 10629 10629 10628 10629 10629 10629 10630 10630 10630 10632 10634 10636 10637 10638 10639 10641 10642 10644 10645 10646 10647 10647 10649 10651 10651 10652 10655 10657 10657 10658 10660 10662 10664 10665 10665 10667 10668 10669 10670 10672 10673 10676 10678 10679 10680 10681 10683 10685 10687 10689 10690 10692 10693 10695 10696 10698 10699 10701 10702 10703 10703 10705
10626 10626 10626 10626 10626 10627 10627 10628 10628 10628 10628 10628 10628 10628 10628 10627 10628 10628 10628 10627 10627 10626 10626 10626 10625 10625 10624 10625 10625 10626 10627 10627 10627 10629 10630 10632 10633 10634 10636 10638 10639 10640 10641 10642 10643 10645 10646 10646 10648 10650 10652 10653 10654 10656 10657 10659 10661 10662 10662 10663 10664 10665 10666 10668 10670 10672 10674 10675 10677 10679 10681 10684 10686 10687 10689 10691 10692 10693 10694 10695 10696 10697 10698 10699 10701
10620 10621 10621 10621 10622 10622 10623 10623 10623 10624 10624 10624 10624 10624 10624 10624 10624 10624 10624 10624 10623 10623 10622 10622 10622 10622 10622 10622 10622 10623 10623 10623 10623 10623 10624 10626 10628 10629 10631 10633 10634 10635 10637 10637 10639 10641 10641 10642 10644 10646 10648 10649 10650 10651 10652 10654 10656 10658 10658 10658 10658 10659 10661 10663 10665 10667 10669 10670 10672 10674 10677 10680 10682 10685 10687 10688 10689 10689 10690 10691 10692 10694 10695 10696 10697
10615 10615 10615 10616 10617 10617 10618 10619 10619 10619 10619 10620 10620 10621 10621 10621 10621 10621 10621 10620 10620 10619 10619 10619 10619 10619 10619 10619 10619 10619 10619 10619 10618 10618 10619 10620 10622 10624 10625 10627 10629 10630 10631 10633 10634 10635 10636 10638 10639 10641 10642 10644 10645 10646 10647 10649 10650 10652 10653 10652 10653 10655 10656 10658 10659 10661 10663 10665 10667 10670 10673 10675 10678 10681 10683 10683 10683 10684 10685 10687 10688 10690 10691 10692 10693
10610 10610 10611 10611 10612 10612 10613 10614 10615 10615 10616 10616 10617 10617 10617 10617 10617 10617 10617 10617 10616 10615 10615 10615 10615 10616 10616 10616 10616 10615 10615 10615 10614 10614 10614 10615 10616 10618 10620 10622 10624 10625 10626 10628 10629 10630 10631 10633 10634 10635 10637 10638 10639 10641 10642 10644 10645 10646 10646 10646 10648 10650 10651 10652 10654 10656 10658 10661 10663 10666 10668 10670 10673 10676 10677 10676 10677 10679 10681 10681 10683 10686 10687 10687 10688
10605 10606 10606 10606 10607 10608 10609 10609 10610 10611 10612 10613 10613 10613 10613 10613 10613 10613 10613 10612 10612 10611 10611 10611 10612 10612 10613 10613 10613 10613 10612 10612 10611 10610 10610 10611 10612 10614 10615 10617 10618 10620 10621 10623 10624 10624 10626 10627 10628 10630 10631 10632 10634 10635 10637 10638 10639 10640 10641 10641 10643 10644 10646 10648 10649 10651 10654 10656 10658 10660 10662 10665 10667 10668 10668 10670 10672 10674 10676 10677 10680 10682 10681 10681 10683
10600 10601 10602 10602 10603 10604 10604 10605 10606 10607 10608 10609 10609 10610 10610 10610 10610 10609 10609 10608 10608 10608 10607 10607 10608 10608 10609 10610 10610 10610 10609 10609 10608 10607 10607 10607 10609 10610 10611 10612 10613 10614 10616 10617 10618 10619 10621 10622 10623 10624 10626 10627 10628 10630 10632 10633 10634 10635 10636 10637 10638 10639 10641 10643 10644 10646 10649 10651 10653 10655 10657 10660 10662 10662 10664 10667 10668 10670 10673 10676 10677 10677 10676 10677 10679
10597 10598 10598 10598 10599 10599 10600 10601 10602 10602 10603 10604 10605 10606 10606 10606 10606 10605 10605 10605 10604 10604 10604 10604 10604 10605 10605 10606 10607 10607 10607 10606 10606 10605 10604 10604 10605 10606 10607 10608 10609 10610 10610 10611 10613 10614 10615 10616 10618 10619 10620 10622 10623 10625 10626 10628 10629 10630 10632 10632 10633 10634 10636 10638 10640 10642 10644 10646 10647 10650 10653 10655 10657 10659 10662 10664 10664 10665 10670 10672 10671 10670 10671 10673 10674
10594 10594 10595 10595 10595 10596 10596 10597 10597 10598 10599 10599 10600 10601 10601 10602 10601 10601 10601 10601 10601 10601 10601 10601 10601 10601 10601 10602 10603 10603 10603 10603 10602 10602 10602 10601 10601 10602 10603 10603 10604 10605 10606 10607 10608 10609 10610 10611 10613 10614 10615 10617 10618 10620 10621 10622 10624 10625 10627 10628 10628 10629 10631 10634 10635 10637 10639 10640 10642 10644 10648 10650 10652 10654 10657 10658 10658 10661 10665 10665 10663 10664 10666 10668 10668
10590 10591 10591 10592 10592 10592 10592 10592 10593 10593 10594 10594 10595 10596 10596 10597 10597 10597 10597 10598 10598 10598 10598 10598 10598 10598 10598 10599 10599 10600 10600 10599 10599 10599 10598 10598 10598 10598 10599 10599 10600 10601 10602 10603 10604 10605 10606 10607 10608 10609 10610 10612 10614 10615 10616 10617 10619 10620 10621 10622 10624 10625 10627 10628 10630 10631 10633 10634 10636 10639 10641 10644 10646 10648 10651 10652 10653 10656 10658 10657 10657 10659 10662 10662 10663
10586 10587 10587 10588 10588 10588 10588 10588 10588 10588 10589 10589 10590 10590 10591 10591 10592 10592 10593 10593 10594 10594 10595 10595 10595 10595 10595 10596 10596 10596 10596 10596 10595 10595 10595 10595 10594 10595 10595 10595 10596 10596 10597 10598 10599 10601 10602 10602 10603 10604 10605 10607 10609 10610 10611 10612 10614 10615 10616 10618 10619 10621 10622 10623 10624 10626 10627 10629 10631 10633 10635 10637 10639 10641 10644 10646 10648 10649 10651 10651 10652 10654 10656 10657 10658
10581 10582 10582 10582 10583 10583 10583 10583 10583 10583 10584 10584 10585 10585 10586 10586 10586 10587 10588 10588 10589 10590 10590 10591 10591 10591 10591 10591 10592 10592 10592 10592 10592 10591 10591 10591 10591 10591 10591 10592 10592 10592 10593 10594 10594 10595 10597 10598 10599 10599 10600 10602 10604 10605 10606 10607 10609 10610 10611 10613 10615 10616 10617 10618 10620 10621 10622 10623 10625 10627 10629 10631 10633 10635 10637 10640 10642 10643 10644 10646 10647 10648 10649 10651 10652
10576 10576 10576 10577 10577 10577 10578 10578 10578 10578 10579 10579 10580 10580 10581 10581 10581 10581 10582 10583 10583 10584 10585 10585 10585 10586 10586 10586 10587 10587 10588 10587 10587 10587 10587 10587 10587 10587 10587 10587 10588 10588 10589 10589 10590 10591 10592 10593 10594 10595 10595 10596 10598 10599 10601 10602 10603 10604 10606 10608 10609 10611 10612 10614 10615 10616 10617 10618 10620 10621 10623 10625 10626 10628 10631 10633 10635 10636 10638 10639 10641 10642 10643 10644 10646
10570 10570 10570 10570 10570 10571 10571 10572 10573 10573 10574 10574 10575 10575 10575 10576 10576 10576 10576 10577 10578 10578 10579 10580 10580 10580 10580 10580 10581 10582 10582 10583 10582 10582 10582 10583 10583 10583 10583 10583 10583 10584 10584 10585 10585 10586 10587 10588 10589 10590 10590 10591 10593 10594 10595 10596 10598 10599 10600 10602 10603 10605 10607 10608 10609 10611 10612 10613 10614 10616 10617 10619 10620 10622 10624 10626 10628 10629 10631 10632 10634 10635 10637 10638 10640
10564 10564 10564 10564 10564 10565 10566 10567 10568 10568 10569 10569 10569 10570 10570 10570 10570 10571 10571 10572 10572 10573 10574 10574 10575 10575 10575 10575 10575 10576 10576 10577 10577 10577 10577 10577 10578 10578 10578 10578 10579 10579 10579 10580 10580 10581 10581 10582 10583 10584 10585 10586 10587 10588 10589 10590 10592 10593 10594 10596 10597 10599 10600 10602 10604 10605 10606 10607 10609 10610 10611 10613 10615 10616 10617 10619 10620 10622 10624 10625 10627 10628 10630 10632 10633
10558 10557 10557 10557 10558 10559 10560 10561 10562 10562 10563 10563 10564 10564 10564 10565 10565 10566 10566 10566 10567 10568 10568 10569 10569 10569 10569 10569 10570 10570 10571 10571 10571 10571 10571 10572 10572 10573 10573 10573 10574 10574 10574 10574 10575 10575 10576 10576 10577 10578 10579 10580 10581 10582 10583 10584 10585 10587 10588 10589 10591 10592 10594 10596 10598 10599 10600 10601 10603 10604 10606 10607 10609 10610 10611 10612 10614 10615 10617 10618 10620 10621 10622 10624 10626
10551 10551 10550 10551 10552 10553 10554 10555 10555 10556 10556 10557 10557 10557 10558 10558 10559 10560 10560 10561 10561 10562 10562 10562 10563 10563 10563 10563 10563 10564 10564 10564 10565 10565 10565 10565 10566 10566 10567 10567 10568 10568 10569 10569 10569 10570 10570 10571 10572 10573 10573 10574 10575 10576 10577 10578 10579 10580 10581 10582 10584 10585 10587 10588 10590 10592 10594 10596 10597 10598 10600 10601 10602 10604 10605 10606 10607 10609 10610 10611 10613 10614 10615 10617 10618
10543 10544 10543 10543 10544 10546 10547 10547 10548 10548 10549 10550 10550 10551 10551 10552 10553 10554 10554 10555 10555 10556 10556 10556 10556 10556 10556 10556 10556 10557 10557 10557 10558 10558 10558 10558 10559 10560 10560 10561 10561 10562 10562 10563 10563 10564 10564 10565 10566 10566 10567 10568 10568 10569 10570 10571 10572 10573 10574 10576 10577 10578 10579 10581 10583 10584 10587 10589 10590 10592 10593 10595 10596 10597 10598 10599 10600 10602 10603 10605 10606 10607 10608 10609 10611
10536 10536 10535 10535 10537 10538 10538 10539 10539 10540 10542 10543 10543 10544 10545 10545 10546 10547 10547 10547 10548 10548 10549 10549 10549 10549 10549 10549 10549 10549 10550 10550 10550 10550 10551 10552 10552 10553 10554 10554 10555 10556 10556 10557 10557 10557 10558 10558 10559 10560 10561 10562 10562 10563 10563 10564 10566 10567 10568 10569 10570 10572 10573 10574 10575 10577 10579 10580 10582 10584 10586 10587 10589 10590 10591 10592 10593 10595 10596 10598 10599 10600 10601 10602 10603
10529 10529 10529 10528 10529 10530 10530 10531 10531 10532 10534 10535 10536 10536 10537 10538 10538 10539 10539 10539 10540 10541 10541 10541 10541 10541 10541 10541 10541 10542 10542 10543 10543 10543 10544 10545 10546 10547 10547 10548 10548 10549 10550 10550 10550 10551 10551 10552 10552 10553 10554 10555 10555 10556 10557 10558 10559 10560 10562 10563 10564 10565 10566 10567 10568 10570 10571 10573 10574 10576 10578 10579 10581 10583 10584 10585 10586 10587 10588 10590 10591 10592 10593 10594 10595
10521 10522 10524 10523 10522 10523 10523 10523 10524 10524 10525 10527 10528 10528 10529 10530 10530 10530 10530 10531 10533 10534 10534 10534 10534 10534 10533 10532 10533 10535 10536 10536 10537 10538 10538 10539 10540 10540 10540 10541 10542 10542 10543 10543 10543 10544 10544 10544 10545 10546 10546 10547 10548 10549 10550 10551 10552 10553 10555 10556 10557 10558 10559 10560 10561 10562 10564 10565 10566 10567 10569 10571 10572 10574 10576 10577 10578 10579 10580 10581 10583 10584 10585 10585 10586
10513 10515 10516 10516 10515 10515 10515 10515 10516 10517 10517 10519 10520 10521 10521 10522 10522 10522 10522 10523 10525 10526 10527 10527 10527 10527 10525 10524 10525 10528 10530 10531 10531 10532 10533 10533 10534 10534 10534 10534 10535 10535 10536 10536 10536 10536 10537 10537 10538 10538 10539 10539 10540 10541 10542 10544 10545 10546 10547 10548 10550 10551 10552 10553 10554 10555 10556 10557 10558 10559 10560 10562 10563 10565 10566 10568 10569 10570 10571 10573 10574 10575 10576 10577 10577
10507 10508 10509 10508 10507 10508 10508 10508 10509 10509 10510 10511 10513 10514 10515 10515 10515 10514 10514 10516 10517 10518 10519 10520 10520 10520 10520 10520 10520 10523 10524 10524 10526 10527 10527 10527 10527 10527 10527 10527 10527 10527 10528 10528 10529 10529 10530 10530 10530 10531 10531 10531 10532 10533 10535 10536 10537 10538 10539 10541 10542 10543 10544 10545 10545 10546 10547 10548 10549 10550 10551 10553 10554 10556 10557 10558 10559 10561 10562 10564 10566 10567 10567 10567 10569
10500 10501 10502 10501 10500 10500 10501 10500 10500 10501 10502 10503 10504 10506 10507 10508 10508 10508 10507 10508 10509 10510 10512 10513 10514 10515 10516 10516 10517 10517 10517 10518 10520 10520 10520 10520 10520 10520 10521 10521 10520 10520 10520 10520 10521 10522 10522 10522 10522 10522 10522 10523 10524 10525 10526 10528 10529 10530 10531 10532 10533 10534 10535 10536 10537 10537 10538 10539 10540 10540 10542 10544 10545 10546 10548 10549 10550 10550 10552 10554 10556 10557 10558 10558 10560
10493 10494 10494 10494 10493 10493 10494 10493 10493 10493 10493 10495 10496 10497 10498 10500 10501 10501 10501 10500 10501 10502 10503 10506 10508 10509 10511 10511 10511 10510 10510 10511 10512 10512 10512 10512 10512 10513 10513 10513 10512 10512 10513 10513 10513 10513 10514 10514 10513 10513 10513 10514 10515 10517 10517 10518 10520 10521 10522 10523 10524 10525 10526 10527 10528 10529 10530 10530 10530 10531 10533 10535 10536 10537 10538 10539 10540 10540 10542 10544 10546 10547 10548 10549 10551
10486 10486 10486 10486 10486 10486 10487 10487 10486 10486 10486 10488 10489 10489 10490 10491 10492 10493 10493 10493 10493 10493 10494 10496 10498 10501 10502 10503 10503 10503 10502 10503 10504 10504 10505 10504 10504 10504 10505 10504 10504 10504 10505 10505 10505 10505 10505 10504 10504 10504 10505 10506 10508 10508 10508 10509 10510 10511 10513 10513 10514 10515 10515 10517 10519 10521 10522 10522 10521 10522 10524 10526 10527 10527 10528 10529 10530 10530 10532 10533 10535 10537 10538 10539 10541
10479 10478 10478 10478 10478 10478 10479 10480 10479 10480 10480 10481 10481 10481 10482 10483 10484 10485 10486 10486 10486 10486 10486 10487 10488 10490 10492 10493 10493 10493 10493 10494 10494 10494 10495 10496 10496 10496 10496 10496 10495 10495 10496 10496 10496 10496 10496 10495 10494 10495 10497 10499 10500 10499 10499 10499 10500 10501 10502 10503 10504 10505 10505 10506 10508 10510 10513 10513 10512 10512 10514 10517 10518 10517 10518 10520 10520 10521 10522 10523 10524 10526 10527 10528 10530
10472 10471 10471 10472 10471 10470 10471 10471 10472 10472 10473 10474 10475 10474 10474 10474 10475 10477 10478 10479 10479 10479 10479 10480 10480 10480 10481 10482 10482 10482 10483 10484 10483 10484 10485 10487 10487 10488 10488 10487 10487 10487 10487 10488 10488 10488 10487 10485 10485 10487 10488 10490 10491 10490 10489 10490 10491 10491 10492 10493 10494 10495 10496 10496 10497 10499 10502 10504 10503 10502 10502 10506 10509 10508 10507 10509 10511 10511 10511 10512 10514 10516 10517 10518 10519
10464 10465 10465 10464 10462 10462 10462 10463 10464 10464 10465 10466 10467 10468 10467 10467 10467 10469 10470 10471 10472 10473 10473 10473 10473 10473 10473 10474 10474 10474 10475 10476 10475 10475 10476 10478 10478 10479 10479 10480 10480 10479 10479 10479 10479 10479 10478 10477 10476 10477 10478 10480 10480 10480 10480 10481 10481 10482 10482 10483 10484 10485 10486 10486 10486 10487 10490 10492 10494 10493 10491 10493 10497 10499 10497 10498 10501 10500 10500 10501 10503 10506 10508 10508 10509
10454 10457 10457 10453 10453 10454 10454 10454 10455 10455 10456 10457 10459 10460 10460 10460 10461 10462 10462 10463 10464 10465 10466 10466 10466 10466 10467 10467 10467 10467 10467 10467 10467 10467 10467 10468 10469 10470 10470 10471 10471 10471 10471 10471 10470 10470 10469 10468 10468 10468 10468 10468 10469 10470 10471 10472 10472 10472 10473 10473 10474 10475 10476 10476 10476 10476 10478 10480 10482 10484 10483 10482 10485 10489 10488 10487 10489 10490 10489 10489 10491 10495 10497 10498 10498
10443 10447 10447 10444 10444 10446 10446 10445 10446 10446 10447 10448 10450 10451 10452 10453 10454 10455 10455 10456 10456 10457 10458 10459 10459 10459 10459 10459 10459 10458 10458 10459 10459 10459 10459 10459 10460 10461 10461 10462 10462 10462 10462 10462 10462 10461 10460 10459 10459 10459 10459 10458 10459 10461 10462 10462 10462 10463 10463 10463 10464 10465 10466 10466 10465 10465 10466 10467 10468 10471 10473 10471 10472 10477 10478 10475 10477 10479 10478 10478 10480 10483 10486 10487 10487
10435 10436 10436 10435 10435 10436 10436 10436 10436 10436 10437 10438 10440 10442 10444 10445 10446 10447 10447 10448 10448 10449 10450 10450 10450 10450 10450 10450 10449 10449 10449 10450 10450 10450 10450 10451 10451 10452 10452 10453 10453 10454 10453 10453 10453 10452 10451 10451 10451 10451 10450 10450 10451 10452 10452 10452 10452 10452 10453 10453 10453 10453 10454 10454 10454 10454 10454 10455 10456 10457 10460 10461 10460 10463 10465 10462 10462 10465 10466 10465 10468 10472 10474 10475 10476
10426 10426 10426 10425 10425 10426 10426 10427 10427 10427 10427 10428 10430 10432 10434 10436 10437 10438 10439 10439 10440 10440 10441 10441 10441 10440 10440 10440 10440 10440 10440 10440 10441 10441 10441 10442 10442 10442 10443 10444 10444 10444 10444 10444 10443 10443 10442 10442 10442 10442 10442 10441 10441 10442 10442 10442 10443 10443 10443 10442 10441 10441 10442 10443 10443 10443 10442 10443 10443 10443 10446 10449 10450 10451 10452 10450 10448 10451 10452 10452 10455 10458 10460 10462 10464
10416 10416 10415 10415 10415 10416 10416 10417 10417 10418 10418 10419 10421 10423 10425 10427 10428 10430 10430 10431 10431 10431 10431 10431 10430 10430 10430 10430 10430 10430 10430 10430 10431 10431 10431 10432 10432 10432 10433 10433 10434 10434 10434 10434 10434 10433 10433 10433 10433 10433 10433 10432 10432 10431 10431 10431 10432 10431 10432 10431 10431 10431 10431 10431 10431 10431 10430 10429 10428 10427 10430 10435 10438 10439 10439 10438 10437 10437 10437 10438 10440 10443 10446 10448 10450
10405 10405 10405 10406 10406 10407 10407 10407 10407 10408 10409 10411 10412 10414 10415 10417 10419 10420 10421 10421 10422 10421 10421 10421 10420 10420 10420 10420 10420 10420 10419 10419 10420 10420 10421 10421 10421 10422 10422 10423 10423 10423 10423 10423 10423 10424 10423 10423 10424 10424 10423 10423 10422 10421 10421 10420 10420 10420 10420 10419 10419 10419 10420 10419 10418 10418 10418 10416 10414 10413 10415 10419 10422 10424 10425 10426 10427 10426 10424 10424 10426 10427 10430 10433 10435